168P/Hergenrother (2012)

Japanese version
Home page
Updated on September 14, 2013

---------------------------------------------------------------------

* Profile

* Pictures

* Orbital Elements

Epoch 2012 Sept. 30.0 TT = JDT 2456200.5
T 2012 Oct. 1.96457 TT                                  MPC
q   1.4149815            (2000.0)            P               Q
n   0.14295243     Peri.   13.94935     +0.98244003     -0.18515528
a   3.6224997      Node   356.46877     +0.11412511     +0.69387994
e   0.6093909      Incl.   21.92922     +0.14760437     +0.69587941
P   6.89
From 3172 observations 1998 Nov. 21-2013 Jan. 16, mean residual 0".9.
     Nongravitational parameters A1 = +2.68, A2 = +0.2381.

* Finding Charts

* Magnitudes Graph

        m1 =   5.5 + 5 log d +  60 log r  [   ,-25]  (             - 2012 Sept. 6)
        m1 = -64.5 + 5 log d + 500 log r  [-25,  0]  (2012 Sept. 6 - 2012 Oct.  1)
        m1 =   4.1 + 5 log d +  45 log r  [  0,   ]  (2012 Oct.  1 -             )

---------------------------------------------------------------------

The orbital elements are published on M.P.E.C. 2013-B90.
The charts are made with StellaNavigator Ver.8 (AstroArts).
The magnitudes graphs are made with Comet for Windows.

---------------------------------------------------------------------

Copyright(C) Seiichi Yoshida (comet@aerith.net). All rights reserved.